Regional Weather Roundup
Issued by NWS

Home | Current Version | Previous Version | Text Only | Print | Product List | Glossary Off
Versions: 1 2 3 4 5 6 7 8 9 10 11 12 13 14 15 16 17 18 19 20 21 22 23 24 25 26 27 28 29 30 31 32 33 34 35 36 37 38 39 40 41 42 43 44 45 46 47 48 49 50

000
ASUS45 KBOI 311410
RWRID

IDAHO REGIONAL WEATHER ROUNDUP
NATIONAL WEATHER SERVICE BOISE ID
800 AM MDT FRI JUL 31 2015

NOTE: "FAIR" INDICATES FEW OR NO CLOUDS BELOW 12000 FEET
WITH NO SIGNIFICANT WEATHER AND/OR OBSTRUCTIONS TO VISIBILITY

IDZ012-014-311500-
SOUTHWEST IDAHO


CITY           SKY/WX    TMP DP  RH WIND       PRES   REMARKS
BOISE          SUNNY     67  40  37 CALM      30.17R
CALDWELL       SUNNY     59  41  51 CALM      30.17R
MOUNTAIN HOME  SUNNY     62  34  35 SE6       30.19R
$$

IDZ016-017-311500-
SOUTHCENTRAL IDAHO


CITY           SKY/WX    TMP DP  RH WIND       PRES   REMARKS
BURLEY         MOSUNNY   56  44  64 NE3       30.26R
JEROME         MOSUNNY   64  34  32 E7        30.25R
TWIN FALLS     MOSUNNY   69  30  23 S9        30.23R
$$

IDZ019>023-311500-
SOUTHEAST IDAHO


CITY           SKY/WX    TMP DP  RH WIND       PRES   REMARKS
IDAHO FALLS    SUNNY     52  45  77 N5        30.32R
POCATELLO      SUNNY     60  36  40 E3        30.30R
REXBURG        SUNNY     51  43  74 NE5       30.33R
$$

IDZ006-010-011-018-031-032-311500-
CENTRAL IDAHO MOUNTAINS


CITY           SKY/WX    TMP DP  RH WIND       PRES   REMARKS
MCCALL         SUNNY     54  42  64 CALM      30.31R
HAILEY         MOSUNNY   55  36  47 NW12      30.37R
STANLEY          N/A     43  32  65 NE6       30.48R
SALMON         SUNNY     55  45  67 CALM      30.32S
CHALLIS        SUNNY     60  39  45 CALM      30.37R
$$

IDZ002-004-006-007-026-311500-
NORTHERN IDAHO


CITY           SKY/WX    TMP DP  RH WIND       PRES   REMARKS
LEWISTON       MOSUNNY   68  42  38 E3        30.10R
LOWELL           N/A     55  49  80 CALM      30.22R
COEUR D`ALENE  SUNNY     64  45  48 NE6       30.14R
MULLAN PASS    SUNNY     68  30  24 S3        30.36S
$$


USA.gov is the U.S. government's official web portal to all federal, state and local government web resources and services.